CAPE
0 0 0 0 0 0 0 0 0 0 0 0 0 0 0 0 0 0 0 0 0 0 0 0 0 0 0 0 0 0 0 0 0 0 32 30 37 72 109 145 150 97 53 118
0 0 0 0 0 0 0 0 0 0 0 0 0 0 0 0 0 0 0 0 0 0 0 0 0 0 0 0 0 0 0 0 0 0 0 19 48 90 118 117 101 57 69 115
0 0 0 0 0 0 0 0 0 0 0 0 0 0 0 0 0 0 0 0 0 0 0 0 0 0 0 0 0 0 0 0 0 1 0 29 52 67 85 113 129 155 52 66
0 0 0 0 0 0 0 0 0 0 0 0 0 0 0 0 0 0 0 0 0 0 0 0 0 0 0 0 0 0 0 0 0 0 0 0 0 26 56 72 75 137 109 118
0 0 0 0 0 0 0 0 0 0 0 0 0 0 0 0 0 0 0 0 0 0 0 0 0 0 0 0 0 0 0 3 0 0 0 0 30 35 49 104 161 159 94 49
0 0 0 0 0 0 0 0 0 0 0 0 0 0 0 0 0 0 0 12 0 0 0 0 0 0 0 0 0 0 0 0 1 0 0 0 0 19 30 39 33 38 112 158
0 0 0 0 0 0 0 0 0 0 0 0 0 0 0 0 0 0 2 2 0 0 0 0 0 0 0 0 0 0 0 0 0 0 0 0 0 0 0 0 0 0 26 149
0 0 0 0 0 0 0 0 0 0 0 0 6 0 0 0 0 0 3 0 0 0 0 0 0 0 0 0 0 0 0 0 0 0 0 0 0 0 0 0 0 0 0 2
0 0 0 0 0 2 0 0 0 0 1 0 0 11 76 6 3 7 0 0 0 0 0 0 0 0 0 0 0 0 0 0 0 0 0 0 0 0 0 0 0 0 0 0
0 0 0 3 72 28 0 1 0 0 0 0 0 287 61 13 29 10 0 0 0 0 0 0 0 0 0 0 0 0 0 0 0 0 0 0 0 0 0 0 0 0 0 0
0 0 4 108 86 18 103 92 36 6 0 0 0 33 351 135 62 21 0 0 0 0 0 0 0 0 0 0 0 0 0 0 0 0 0 0 0 0 0 0 0 0 0 0
0 0 0 132 217 161 150 164 45 35 1 23 36 84 539 336 65 31 0 0 0 0 0 0 0 0 0 0 0 0 0 0 0 0 0 0 0 0 0 0 0 0 0 0
0 0 42 96 158 90 46 92 180 109 76 36 35 51 392 179 65 14 6 0 0 0 0 0 0 0 0 0 0 0 0 0 0 0 0 0 0 0 0 0 0 0 0 0
28 7 0 0 4 120 82 67 98 24 1 26 4 89 379 335 197 27 95 21 0 0 0 0 0 0 0 0 0 0 0 0 0 0 0 0 0 0 0 0 0 0 0 0
10 2 0 0 11 121 89 101 94 10 1 0 34 34 235 211 76 76 202 81 21 0 0 0 0 0 0 0 0 0 0 0 0 0 0 0 0 0 0 0 0 0 0 0
15 3 152 169 63 105 78 42 25 10 4 0 19 12 13 162 70 5 177 181 96 14 7 0 0 0 0 0 0 0 0 0 0 0 0 0 0 0 0 0 0 0 0 0
60 0 59 127 131 112 24 16 9 16 21 4 6 2 28 113 86 17 71 235 158 92 19 0 0 0 0 0 0 0 0 0 0 0 0 0 0 0 0 0 0 0 0 0
118 4 0 83 108 27 0 20 9 5 12 3 48 86 56 69 69 63 71 138 128 124 24 0 0 0 0 0 0 0 0 0 0 0 0 0 0 0 0 0 0 0 0 0
302 28 9 35 48 0 2 2 6 2 0 26 25 102 67 27 9 3 150 160 131 84 115 0 0 0 0 0 0 0 0 0 0 0 0 0 0 0 0 0 0 0 0 0
273 123 33 17 0 0 0 0 22 15 0 0 33 40 57 17 0 10 67 106 101 141 206 14 0 0 0 0 0 0 0 0 0 0 0 0 0 0 0 0 0 0 0 0
126 41 30 11 11 3 0 0 18 0 0 66 27 14 28 14 5 47 49 4 86 176 210 75 0 0 0 0 0 0 0 0 0 0 0 0 0 0 0 0 0 0 0 0
228 32 0 0 2 5 0 0 5 0 0 12 12 69 128 140 24 23 0 9 207 185 173 81 4 0 0 0 0 0 0 0 0 0 0 0 0 0 0 0 0 0 0 0
287 38 4 0 0 1 0 16 2 0 0 10 3 1 45 77 14 15 99 29 138 135 87 95 44 0 0 0 0 0 0 0 0 0 0 0 0 0 0 0 0 0 0 0
135 77 19 0 0 0 0 0 0 0 0 0 0 15 15 14 49 20 47 90 79 109 128 147 80 6 1 7 2 0 0 0 0 0 0 0 0 0 0 0 0 0 0 0
189 87 38 30 1 0 0 2 6 16 0 0 0 17 54 74 44 35 35 70 103 62 78 103 170 84 70 91 83 15 2 0 0 0 0 0 0 0 0 0 0 0 0 0
135 95 45 22 16 1 2 0 281 122 92 8 77 32 35 49 21 16 9 1 1 231 66 96 251 231 220 230 214 168 86 24 0 0 0 0 0 0 0 0 0 0 0 0
CIN
0 0 0 0 0 0 0 0 0 0 0 0 0 0 0 0 0 0 0 0 0 0 0 0 0 0 0 0 0 0 0 0 0 -1 -32 -42 -21 -21 -21 -16 -19 -33 -25 -34
0 0 0 0 0 0 0 0 0 0 0 0 0 0 0 0 0 0 0 0 0 0 0 0 0 0 0 0 0 0 0 0 0 0 0 -11 -17 -5 -11 -26 -23 -32 -63 -23
0 0 0 0 0 0 0 0 0 0 0 0 0 0 0 0 0 0 0 0 0 0 0 0 0 0 0 0 0 0 0 0 0 -4 0 -25 -13 -11 -17 -21 -6 -9 -38 -46
0 0 0 0 0 0 0 0 0 0 0 0 0 0 0 0 0 0 0 0 0 0 0 0 0 0 0 0 0 0 0 0 0 0 0 0 0 -28 -22 -31 -24 -4 -52 -52
0 0 0 0 0 0 0 0 0 0 0 0 0 0 0 0 0 0 0 0 0 0 0 0 0 0 0 0 0 0 0 0 0 0 0 0 -21 -17 -8 -35 -31 -9 -8 -4
0 0 0 0 0 0 0 0 0 0 0 0 0 0 0 0 0 0 -1 -7 0 0 0 0 0 0 0 0 0 0 0 0 -7 0 0 0 0 -28 -15 -6 -14 -11 -14 -17
0 0 0 0 0 0 0 0 0 0 0 0 0 0 0 0 0 0 -3 -6 0 0 0 0 0 0 0 0 0 0 0 0 0 0 0 0 0 0 0 0 0 0 -48 -32
0 0 0 0 0 0 0 0 0 0 0 0 -97 -6 0 0 0 0 -9 0 0 0 0 0 0 0 0 0 0 0 0 0 0 0 0 0 0 0 0 0 0 0 0 -5
0 0 0 0 0 -3 0 0 0 0 -6 0 0 -86 -34 -51 -30 -49 0 0 0 0 0 0 0 0 0 0 0 0 0 0 0 0 0 0 0 0 0 0 0 0 0 0
0 0 0 -4 -92 -95 -1 -2 -1 0 0 0 0 -40 -11 -23 -67 -39 0 0 0 0 0 0 0 0 0 0 0 0 0 0 0 0 0 0 0 0 0 0 0 0 0 0
0 0 -48 -70 -62 -6 -52 -86 -140 -33 -4 0 0 -92 -71 -6 -76 -48 0 0 0 0 0 0 0 0 0 0 0 0 0 0 0 0 0 0 0 0 0 0 0 0 0 0
0 0 0 -49 -80 -170 -138 -254 -202 -142 -80 -29 -8 -1 -55 -15 -25 -62 0 0 0 0 0 0 0 0 0 0 0 0 0 0 0 0 0 0 0 0 0 0 0 0 0 0
-1 0 -110 -88 -87 -89 -28 -191 -279 -189 -96 -81 -22 -47 -68 -116 -75 -69 -108 -19 0 0 0 0 0 0 0 0 0 0 0 0 0 0 0 0 0 0 0 0 0 0 0 0
-4 -5 0 0 -12 -35 -90 -61 -176 -97 -73 -39 -33 -32 -33 -63 -71 -74 -84 -98 0 0 0 0 0 0 0 0 0 0 0 0 0 0 0 0 0 0 0 0 0 0 0 0
-15 -3 0 0 -88 -95 -91 -76 -138 -77 -170 0 -76 -50 -25 -46 -209 -148 -58 -60 -73 0 0 0 0 0 0 0 0 0 0 0 0 0 0 0 0 0 0 0 0 0 0 0
-73 -35 -107 -207 -118 -114 -90 -87 -111 -135 -29 0 -16 -58 -24 -28 -133 -35 -35 -39 -90 -75 -102 0 0 0 0 0 0 0 0 0 0 0 0 0 0 0 0 0 0 0 0 0
-71 0 -57 -89 -51 -29 -68 -136 -109 -98 -109 -81 -32 -30 -15 -5 -19 -28 -46 -53 -65 -55 -88 0 0 0 0 0 0 0 0 0 0 0 0 0 0 0 0 0 0 0 0 0
-2 -7 0 -136 -52 -37 0 -170 -89 -123 -144 -70 -124 -70 -27 -43 -26 -27 -29 -24 -42 -72 -113 0 0 0 0 0 0 0 0 0 0 0 0 0 0 0 0 0 0 0 0 0
-36 -34 -22 -110 -67 -21 -82 -30 -175 -32 0 -224 -82 -66 -39 -53 -62 -40 -62 -43 -29 -58 -69 0 0 0 0 0 0 0 0 0 0 0 0 0 0 0 0 0 0 0 0 0
-21 -68 -26 -61 -1 0 0 0 -60 -213 0 -18 -147 -86 -12 -38 0 -73 -228 -108 -89 -45 -46 -65 0 0 0 0 0 0 0 0 0 0 0 0 0 0 0 0 0 0 0 0
-122 -44 -24 -37 -16 -11 0 0 -169 -17 0 -205 -156 -99 -96 -18 -16 -12 -43 -70 -31 -42 -60 -67 -18 0 0 0 0 0 0 0 0 0 0 0 0 0 0 0 0 0 0 0
-115 -113 0 0 -5 -13 0 0 -111 0 0 -224 -89 -160 -100 -14 -32 -78 -2 -40 -29 -20 -34 -69 -107 0 0 0 0 0 0 0 0 0 0 0 0 0 0 0 0 0 0 0
-40 -88 -72 0 0 -65 0 -125 -57 0 0 -376 -113 -13 -50 -59 -92 -77 -9 -56 -47 -54 -74 -52 -98 0 0 0 0 0 0 0 0 0 0 0 0 0 0 0 0 0 0 0
-45 -65 -26 -15 0 0 0 0 0 0 -5 0 0 -78 -40 -166 -60 -69 -91 -31 -58 -64 -20 -15 -32 -45 -10 -59 -12 0 0 0 0 0 0 0 0 0 0 0 0 0 0 0
-52 -57 -33 -32 -22 -33 0 -32 -29 -44 -9 0 0 -245 -238 -232 -199 -42 -29 -28 -20 -23 -56 -16 -16 -50 -40 -28 -30 -57 -32 0 0 0 0 0 0 0 0 0 0 0 0 0
-20 -52 -13 -30 -56 -10 -69 -6 -32 -42 -33 -41 -63 -105 -417 -94 -205 -42 -48 -18 -5 -98 -73 -47 -7 -26 -20 -17 -33 -30 -57 -107 0 0 0 0 0 0 0 0 0 0 0 0
Wind_Speed
nan nan nan nan nan nan nan nan nan nan nan nan nan nan nan nan nan nan nan nan nan nan nan nan nan nan nan nan nan nan nan nan nan nan nan nan nan nan 17 16 19 nan nan 21
nan nan nan nan nan nan nan nan nan nan nan nan nan nan nan nan nan nan nan nan nan nan nan nan nan nan nan nan nan nan nan nan nan nan nan nan nan nan 23 20 19 nan nan 24
nan nan nan nan nan nan nan nan nan nan nan nan nan nan nan nan nan nan nan nan nan nan nan nan nan nan nan nan nan nan nan nan nan nan nan nan nan nan nan 28 30 25 nan nan
nan nan nan nan nan nan nan nan nan nan nan nan nan nan nan nan nan nan nan nan nan nan nan nan nan nan nan nan nan nan nan nan nan nan nan nan nan nan nan nan nan 31 27 27
nan nan nan nan nan nan nan nan nan nan nan nan nan nan nan nan nan nan nan nan nan nan nan nan nan nan nan nan nan nan nan nan nan nan nan nan nan nan nan 29 27 15 nan nan
nan nan nan nan nan nan nan nan nan nan nan nan nan nan nan nan nan nan nan nan nan nan nan nan nan nan nan nan nan nan nan nan nan nan nan nan nan nan nan nan nan nan 25 29
nan nan nan nan nan nan nan nan nan nan nan nan nan nan nan nan nan nan nan nan nan nan nan nan nan nan nan nan nan nan nan nan nan nan nan nan nan nan nan nan nan nan nan 21
nan nan nan nan nan nan nan nan nan nan nan nan nan nan nan nan nan nan nan nan nan nan nan nan nan nan nan nan nan nan nan nan nan nan nan nan nan nan nan nan nan nan nan nan
nan nan nan nan nan nan nan nan nan nan nan nan nan nan nan nan nan nan nan nan nan nan nan nan nan nan nan nan nan nan nan nan nan nan nan nan nan nan nan nan nan nan nan nan
nan nan nan nan nan nan nan nan nan nan nan nan nan 12 nan nan nan nan nan nan nan nan nan nan nan nan nan nan nan nan nan nan nan nan nan nan nan nan nan nan nan nan nan nan
nan nan nan 28 nan nan 34 nan nan nan nan nan nan nan 12 16 nan nan nan nan nan nan nan nan nan nan nan nan nan nan nan nan nan nan nan nan nan nan nan nan nan nan nan nan
nan nan nan 26 31 31 33 38 nan nan nan nan nan nan 13 10 nan nan nan nan nan nan nan nan nan nan nan nan nan nan nan nan nan nan nan nan nan nan nan nan nan nan nan nan
nan nan nan nan 38 nan nan nan 47 53 nan nan nan nan 12 24 nan nan nan nan nan nan nan nan nan nan nan nan nan nan nan nan nan nan nan nan nan nan nan nan nan nan nan nan
nan nan nan nan nan 35 nan nan nan nan nan nan nan nan 7 19 11 nan nan nan nan nan nan nan nan nan nan nan nan nan nan nan nan nan nan nan nan nan nan nan nan nan nan nan
nan nan nan nan nan 28 nan 27 nan nan nan nan nan nan 4 15 nan nan 16 nan nan nan nan nan nan nan nan nan nan nan nan nan nan nan nan nan nan nan nan nan nan nan nan nan
nan nan 51 55 nan 37 nan nan nan nan nan nan nan nan nan 9 nan nan 9 10 nan nan nan nan nan nan nan nan nan nan nan nan nan nan nan nan nan nan nan nan nan nan nan nan
nan nan nan 52 56 56 nan nan nan nan nan nan nan nan nan 20 nan nan nan 17 15 nan nan nan nan nan nan nan nan nan nan nan nan nan nan nan nan nan nan nan nan nan nan nan
50 nan nan nan 55 nan nan nan nan nan nan nan nan nan nan nan nan nan nan 16 15 17 nan nan nan nan nan nan nan nan nan nan nan nan nan nan nan nan nan nan nan nan nan nan
48 nan nan nan nan nan nan nan nan nan nan nan nan 16 nan nan nan nan 6 7 17 nan 7 nan nan nan nan nan nan nan nan nan nan nan nan nan nan nan nan nan nan nan nan nan
65 56 nan nan nan nan nan nan nan nan nan nan nan nan nan nan nan nan nan 12 8 15 11 nan nan nan nan nan nan nan nan nan nan nan nan nan nan nan nan nan nan nan nan nan
64 nan nan nan nan nan nan nan nan nan nan nan nan nan nan nan nan nan nan nan nan 10 10 nan nan nan nan nan nan nan nan nan nan nan nan nan nan nan nan nan nan nan nan nan
64 nan nan nan nan nan nan nan nan nan nan nan nan nan 46 38 nan nan nan nan 10 11 10 nan nan nan nan nan nan nan nan nan nan nan nan nan nan nan nan nan nan nan nan nan
61 nan nan nan nan nan nan nan nan nan nan nan nan nan nan nan nan nan nan nan 13 16 nan nan nan nan nan nan nan nan nan nan nan nan nan nan nan nan nan nan nan nan nan nan
58 nan nan nan nan nan nan nan nan nan nan nan nan nan nan nan nan nan nan nan nan 27 27 27 nan nan nan nan nan nan nan nan nan nan nan nan nan nan nan nan nan nan nan nan
58 nan nan nan nan nan nan nan nan nan nan nan nan nan nan nan nan nan nan nan 25 nan nan 20 17 nan nan nan nan nan nan nan nan nan nan nan nan nan nan nan nan nan nan nan
64 nan nan nan nan nan nan nan 31 16 nan nan nan nan nan nan nan nan nan nan nan 23 nan nan 25 21 16 15 14 18 nan nan nan nan nan nan nan nan nan nan nan nan nan nan
Wind_Direction
nan nan nan nan nan nan nan nan nan nan nan nan nan nan nan nan nan nan nan nan nan nan nan nan nan nan nan nan nan nan nan nan nan nan nan nan nan nan 92 105 121 nan nan 90
nan nan nan nan nan nan nan nan nan nan nan nan nan nan nan nan nan nan nan nan nan nan nan nan nan nan nan nan nan nan nan nan nan nan nan nan nan nan 91 109 116 nan nan 105
nan nan nan nan nan nan nan nan nan nan nan nan nan nan nan nan nan nan nan nan nan nan nan nan nan nan nan nan nan nan nan nan nan nan nan nan nan nan nan 99 108 122 nan nan
nan nan nan nan nan nan nan nan nan nan nan nan nan nan nan nan nan nan nan nan nan nan nan nan nan nan nan nan nan nan nan nan nan nan nan nan nan nan nan nan nan 120 129 125
nan nan nan nan nan nan nan nan nan nan nan nan nan nan nan nan nan nan nan nan nan nan nan nan nan nan nan nan nan nan nan nan nan nan nan nan nan nan nan 106 109 122 nan nan
nan nan nan nan nan nan nan nan nan nan nan nan nan nan nan nan nan nan nan nan nan nan nan nan nan nan nan nan nan nan nan nan nan nan nan nan nan nan nan nan nan nan 107 111
nan nan nan nan nan nan nan nan nan nan nan nan nan nan nan nan nan nan nan nan nan nan nan nan nan nan nan nan nan nan nan nan nan nan nan nan nan nan nan nan nan nan nan 103
nan nan nan nan nan nan nan nan nan nan nan nan nan nan nan nan nan nan nan nan nan nan nan nan nan nan nan nan nan nan nan nan nan nan nan nan nan nan nan nan nan nan nan nan
nan nan nan nan nan nan nan nan nan nan nan nan nan nan nan nan nan nan nan nan nan nan nan nan nan nan nan nan nan nan nan nan nan nan nan nan nan nan nan nan nan nan nan nan
nan nan nan nan nan nan nan nan nan nan nan nan nan 264 nan nan nan nan nan nan nan nan nan nan nan nan nan nan nan nan nan nan nan nan nan nan nan nan nan nan nan nan nan nan
nan nan nan 225 nan nan 240 nan nan nan nan nan nan nan 279 311 nan nan nan nan nan nan nan nan nan nan nan nan nan nan nan nan nan nan nan nan nan nan nan nan nan nan nan nan
nan nan nan 230 213 221 233 260 nan nan nan nan nan nan 254 272 nan nan nan nan nan nan nan nan nan nan nan nan nan nan nan nan nan nan nan nan nan nan nan nan nan nan nan nan
nan nan nan nan 215 nan nan nan 250 256 nan nan nan nan 225 255 nan nan nan nan nan nan nan nan nan nan nan nan nan nan nan nan nan nan nan nan nan nan nan nan nan nan nan nan
nan nan nan nan nan 251 nan nan nan nan nan nan nan nan 210 270 296 nan nan nan nan nan nan nan nan nan nan nan nan nan nan nan nan nan nan nan nan nan nan nan nan nan nan nan
nan nan nan nan nan 271 nan 275 nan nan nan nan nan nan 202 293 nan nan 273 nan nan nan nan nan nan nan nan nan nan nan nan nan nan nan nan nan nan nan nan nan nan nan nan nan
nan nan 238 243 nan 252 nan nan nan nan nan nan nan nan nan 265 nan nan 246 283 nan nan nan nan nan nan nan nan nan nan nan nan nan nan nan nan nan nan nan nan nan nan nan nan
nan nan nan 244 255 251 nan nan nan nan nan nan nan nan nan 233 nan nan nan 321 346 nan nan nan nan nan nan nan nan nan nan nan nan nan nan nan nan nan nan nan nan nan nan nan
203 nan nan nan 246 nan nan nan nan nan nan nan nan nan nan nan nan nan nan 308 321 324 nan nan nan nan nan nan nan nan nan nan nan nan nan nan nan nan nan nan nan nan nan nan
217 nan nan nan nan nan nan nan nan nan nan nan nan 247 nan nan nan nan 300 287 318 nan 325 nan nan nan nan nan nan nan nan nan nan nan nan nan nan nan nan nan nan nan nan nan
226 221 nan nan nan nan nan nan nan nan nan nan nan nan nan nan nan nan nan 305 286 314 298 nan nan nan nan nan nan nan nan nan nan nan nan nan nan nan nan nan nan nan nan nan
219 nan nan nan nan nan nan nan nan nan nan nan nan nan nan nan nan nan nan nan nan 306 306 nan nan nan nan nan nan nan nan nan nan nan nan nan nan nan nan nan nan nan nan nan
228 nan nan nan nan nan nan nan nan nan nan nan nan nan 237 230 nan nan nan nan 295 288 278 nan nan nan nan nan nan nan nan nan nan nan nan nan nan nan nan nan nan nan nan nan
221 nan nan nan nan nan nan nan nan nan nan nan nan nan nan nan nan nan nan nan 285 313 nan nan nan nan nan nan nan nan nan nan nan nan nan nan nan nan nan nan nan nan nan nan
216 nan nan nan nan nan nan nan nan nan nan nan nan nan nan nan nan nan nan nan nan 284 250 263 nan nan nan nan nan nan nan nan nan nan nan nan nan nan nan nan nan nan nan nan
224 nan nan nan nan nan nan nan nan nan nan nan nan nan nan nan nan nan nan nan 238 nan nan 278 293 nan nan nan nan nan nan nan nan nan nan nan nan nan nan nan nan nan nan nan
222 nan nan nan nan nan nan nan 237 260 nan nan nan nan nan nan nan nan nan nan nan 239 nan nan 272 299 282 296 285 286 nan nan nan nan nan nan nan nan nan nan nan nan nan nan